Time,TemperatureF,DewpointF,PressureIn,WindDirection,WindDirectionDegrees,WindSpeedMPH,WindSpeedGustMPH,Humidity,HourlyPrecipIn,Conditions,Clouds,dailyrainin,SoftwareType,DateUTC
2013-03-10 00:01:00,29.0,25.0,-100.00,SSW,206,0.0,2.0,86,0.00,,,-99.99,,2013-03-10 07:01:00,
2013-03-10 00:11:00,29.0,26.0,-100.00,South,189,1.0,2.0,86,0.00,,,-99.99,,2013-03-10 07:11:00,
2013-03-10 00:21:00,30.0,25.0,-100.00,WSW,244,2.0,4.0,81,0.00,,,-99.99,,2013-03-10 07:21:00,
2013-03-10 00:31:00,30.0,25.0,-100.00,WSW,244,2.0,4.0,81,0.00,,,-99.99,,2013-03-10 07:31:00,
2013-03-10 00:41:00,26.0,23.0,-100.00,North,349,0.0,1.0,88,0.00,,,-99.99,,2013-03-10 07:41:00,
2013-03-10 00:52:00,26.0,23.0,-100.00,WSW,239,1.0,2.0,88,0.00,,,-99.99,,2013-03-10 07:52:00,
2013-03-10 01:01:00,26.0,23.0,-100.00,WSW,239,1.0,2.0,88,0.00,,,-99.99,,2013-03-10 08:01:00,
2013-03-10 01:11:00,27.0,24.0,-100.00,West,268,0.0,1.0,88,0.00,,,-99.99,,2013-03-10 08:11:00,
2013-03-10 01:21:00,29.0,26.0,-100.00,SSW,213,3.0,4.0,86,0.00,,,-99.99,,2013-03-10 08:21:00,
2013-03-10 01:31:00,29.0,26.0,-100.00,SSW,213,3.0,4.0,86,0.00,,,-99.99,,2013-03-10 08:31:00,
2013-03-10 01:42:00,29.0,25.0,-100.00,WSW,243,6.0,8.0,82,0.00,,,-99.99,,2013-03-10 08:42:00,
2013-03-10 01:51:00,29.0,24.0,-100.00,South,179,2.0,2.0,83,0.00,,,-99.99,,2013-03-10 08:51:00,
2013-03-10 03:01:00,29.0,24.0,-100.00,South,179,2.0,2.0,83,0.00,,,-99.99,,2013-03-10 09:01:00,
2013-03-10 03:11:00,29.0,24.0,-100.00,South,179,2.0,2.0,83,0.00,,,-99.99,,2013-03-10 09:11:00,
2013-03-10 03:21:00,28.0,25.0,-100.00,South,185,2.0,3.0,89,0.00,,,-99.99,,2013-03-10 09:21:00,
2013-03-10 03:31:00,28.0,25.0,-100.00,South,185,2.0,3.0,89,0.00,,,-99.99,,2013-03-10 09:31:00,
2013-03-10 03:42:00,27.0,25.0,-100.00,SW,219,0.0,3.0,91,0.00,,,-99.99,,2013-03-10 09:42:00,
2013-03-10 03:51:00,27.0,25.0,-100.00,SW,229,4.0,4.0,92,0.00,,,-99.99,,2013-03-10 09:51:00,
2013-03-10 04:01:00,27.0,25.0,-100.00,SW,229,4.0,4.0,92,0.00,,,-99.99,,2013-03-10 10:01:00,
2013-03-10 04:11:00,26.0,24.0,-100.00,WSW,248,2.0,2.0,91,0.00,,,-99.99,,2013-03-10 10:11:00,
2013-03-10 04:21:00,25.0,24.0,-100.00,SW,223,1.0,2.0,93,0.00,,,-99.99,,2013-03-10 10:21:00,
2013-03-10 04:31:00,25.0,24.0,-100.00,SW,223,1.0,2.0,93,0.00,,,-99.99,,2013-03-10 10:31:00,
2013-03-10 04:41:00,25.0,24.0,-100.00,SSW,205,1.0,2.0,94,0.00,,,-99.99,,2013-03-10 10:41:00,
2013-03-10 04:52:00,26.0,24.0,-100.00,South,172,2.0,3.0,94,0.00,,,-99.99,,2013-03-10 10:52:00,
2013-03-10 05:01:00,26.0,24.0,-100.00,South,172,2.0,3.0,94,0.00,,,-99.99,,2013-03-10 11:01:00,
2013-03-10 05:11:00,26.0,24.0,-100.00,South,172,2.0,3.0,94,0.00,,,-99.99,,2013-03-10 11:11:00,
2013-03-10 05:21:00,26.0,25.0,-100.00,SSE,167,3.0,3.0,94,0.00,,,-99.99,,2013-03-10 11:21:00,
2013-03-10 05:31:00,26.0,25.0,-100.00,SSE,167,3.0,3.0,94,0.00,,,-99.99,,2013-03-10 11:31:00,
2013-03-10 05:42:00,24.0,23.0,-100.00,WNW,285,0.0,1.0,94,0.00,,,-99.99,,2013-03-10 11:42:00,
2013-03-10 05:52:00,24.0,23.0,-100.00,WSW,250,0.0,0.0,95,0.00,,,-99.99,,2013-03-10 11:52:00,
2013-03-10 06:01:00,24.0,23.0,-100.00,WSW,250,0.0,0.0,95,0.00,,,-99.99,,2013-03-10 12:01:00,
2013-03-10 06:11:00,24.0,23.0,-100.00,SSE,168,3.0,4.0,96,0.00,,,-99.99,,2013-03-10 12:11:00,
2013-03-10 06:21:00,24.0,23.0,-100.00,SSE,168,3.0,4.0,96,0.00,,,-99.99,,2013-03-10 12:21:00,
2013-03-10 06:31:00,24.0,23.0,-100.00,SSE,168,3.0,4.0,96,0.00,,,-99.99,,2013-03-10 12:31:00,
2013-03-10 06:42:00,26.0,24.0,-100.00,South,184,5.0,6.0,94,0.00,,,-99.99,,2013-03-10 12:42:00,
2013-03-10 06:52:00,25.0,23.0,-100.00,WSW,247,5.0,6.0,91,0.00,,,-99.99,,2013-03-10 12:52:00,
2013-03-10 07:01:00,25.0,23.0,-100.00,WSW,247,5.0,6.0,91,0.00,,,-99.99,,2013-03-10 13:01:00,
2013-03-10 07:11:00,24.0,22.0,-100.00,WSW,240,5.0,6.0,92,0.00,,,-99.99,,2013-03-10 13:11:00,
2013-03-10 07:21:00,24.0,22.0,-100.00,SW,229,5.0,6.0,90,0.00,,,-99.99,,2013-03-10 13:21:00,
2013-03-10 07:31:00,24.0,22.0,-100.00,SW,229,5.0,6.0,90,0.00,,,-99.99,,2013-03-10 13:31:00,
2013-03-10 07:41:00,23.0,21.0,-100.00,WSW,258,4.0,4.0,91,0.00,,,-99.99,,2013-03-10 13:41:00,
2013-03-10 07:52:00,23.0,20.0,-100.00,West,260,4.0,4.0,91,0.00,,,-99.99,,2013-03-10 13:52:00,
2013-03-10 08:01:00,23.0,20.0,-100.00,West,260,4.0,4.0,91,0.00,,,-99.99,,2013-03-10 14:01:00,
2013-03-10 08:11:00,24.0,22.0,-100.00,WSW,241,6.0,6.0,92,0.00,,,-99.99,,2013-03-10 14:11:00,
2013-03-10 08:21:00,24.0,22.0,-100.00,South,181,4.0,5.0,94,0.00,,,-99.99,,2013-03-10 14:21:00,
2013-03-10 08:31:00,24.0,22.0,-100.00,South,181,4.0,5.0,94,0.00,,,-99.99,,2013-03-10 14:31:00,
2013-03-10 08:41:00,24.0,22.0,-100.00,South,181,4.0,5.0,94,0.00,,,-99.99,,2013-03-10 14:41:00,
2013-03-10 08:52:00,27.0,24.0,-100.00,SSW,200,2.0,4.0,90,0.00,,,-99.99,,2013-03-10 14:52:00,
2013-03-10 09:01:00,27.0,24.0,-100.00,SSW,200,2.0,4.0,90,0.00,,,-99.99,,2013-03-10 15:01:00,
2013-03-10 09:11:00,27.0,24.0,-100.00,SSW,198,2.0,3.0,89,0.00,,,-99.99,,2013-03-10 15:11:00,
2013-03-10 09:21:00,29.0,26.0,-100.00,SSW,195,3.0,4.0,89,0.00,,,-99.99,,2013-03-10 15:21:00,
2013-03-10 09:31:00,29.0,26.0,-100.00,SSW,195,3.0,4.0,89,0.00,,,-99.99,,2013-03-10 15:31:00,
2013-03-10 09:41:00,30.0,25.0,-100.00,South,191,4.0,7.0,84,0.00,,,-99.99,,2013-03-10 15:41:00,
2013-03-10 09:52:00,31.0,26.0,-100.00,South,185,7.0,11.0,81,0.00,,,-99.99,,2013-03-10 15:52:00,
2013-03-10 10:01:00,31.0,26.0,-100.00,South,185,7.0,11.0,81,0.00,,,-99.99,,2013-03-10 16:01:00,
2013-03-10 10:11:00,32.0,26.0,-100.00,South,186,4.0,7.0,78,0.00,,,-99.99,,2013-03-10 16:11:00,
2013-03-10 10:21:00,32.0,25.0,-100.00,South,191,6.0,9.0,76,0.00,,,-99.99,,2013-03-10 16:21:00,
2013-03-10 10:31:00,32.0,25.0,-100.00,South,191,6.0,9.0,76,0.00,,,-99.99,,2013-03-10 16:31:00,
2013-03-10 10:41:00,33.0,25.0,-100.00,SSW,196,7.0,10.0,74,0.00,,,-99.99,,2013-03-10 16:41:00,
2013-03-10 10:52:00,34.0,26.0,-100.00,South,188,8.0,12.0,73,0.00,,,-99.99,,2013-03-10 16:52:00,
2013-03-10 11:01:00,34.0,26.0,-100.00,South,188,8.0,12.0,73,0.00,,,-99.99,,2013-03-10 17:01:00,
2013-03-10 11:11:00,34.0,26.0,-100.00,South,188,8.0,12.0,73,0.00,,,-99.99,,2013-03-10 17:11:00,
2013-03-10 11:21:00,36.0,26.0,-100.00,SSW,208,5.0,9.0,65,0.00,,,-99.99,,2013-03-10 17:21:00,
2013-03-10 11:31:00,36.0,26.0,-100.00,SSW,208,5.0,9.0,65,0.00,,,-99.99,,2013-03-10 17:31:00,
2013-03-10 11:41:00,36.0,26.0,-100.00,SW,216,5.0,8.0,64,0.00,,,-99.99,,2013-03-10 17:41:00,
2013-03-10 11:51:00,36.0,26.0,-100.00,SW,216,5.0,8.0,64,0.00,,,-99.99,,2013-03-10 17:51:00,
2013-03-10 12:01:00,36.0,26.0,-100.00,SW,216,5.0,8.0,64,0.00,,,-99.99,,2013-03-10 18:01:00,
2013-03-10 12:11:00,37.0,25.0,-100.00,WSW,243,7.0,9.0,60,0.00,,,-99.99,,2013-03-10 18:11:00,
2013-03-10 12:21:00,38.0,25.0,-100.00,SW,224,6.0,8.0,59,0.00,,,-99.99,,2013-03-10 18:21:00,
2013-03-10 12:31:00,38.0,25.0,-100.00,SW,224,6.0,8.0,59,0.00,,,-99.99,,2013-03-10 18:31:00,
2013-03-10 12:41:00,40.0,26.0,-100.00,South,178,8.0,11.0,57,0.00,,,-99.99,,2013-03-10 18:41:00,
2013-03-10 12:52:00,39.0,26.0,-100.00,SSW,203,8.0,14.0,60,0.00,,,-99.99,,2013-03-10 18:52:00,
2013-03-10 13:01:00,39.0,26.0,-100.00,SSW,203,8.0,14.0,60,0.00,,,-99.99,,2013-03-10 19:01:00,
2013-03-10 13:11:00,40.0,26.0,-100.00,South,189,9.0,14.0,57,0.00,,,-99.99,,2013-03-10 19:11:00,
2013-03-10 13:21:00,39.0,26.0,-100.00,SW,216,12.0,16.0,57,0.00,,,-99.99,,2013-03-10 19:21:00,
2013-03-10 13:31:00,39.0,26.0,-100.00,SW,216,12.0,16.0,57,0.00,,,-99.99,,2013-03-10 19:31:00,
2013-03-10 13:41:00,40.0,25.0,-100.00,SW,236,13.0,16.0,55,0.00,,,-99.99,,2013-03-10 19:41:00,
2013-03-10 13:53:00,41.0,27.0,-100.00,SSW,209,11.0,15.0,56,0.00,,,-99.99,,2013-03-10 19:53:00,
2013-03-10 14:01:00,41.0,27.0,-100.00,SSW,209,11.0,15.0,56,0.00,,,-99.99,,2013-03-10 20:01:00,
2013-03-10 14:12:00,42.0,27.0,-100.00,SSW,199,10.0,12.0,55,0.00,,,-99.99,,2013-03-10 20:12:00,
2013-03-10 14:22:00,42.0,26.0,-100.00,SW,220,10.0,16.0,51,0.00,,,-99.99,,2013-03-10 20:22:00,
2013-03-10 14:32:00,42.0,26.0,-100.00,SW,220,10.0,16.0,51,0.00,,,-99.99,,2013-03-10 20:32:00,
2013-03-10 14:42:00,42.0,25.0,-100.00,SW,227,11.0,14.0,49,0.00,,,-99.99,,2013-03-10 20:42:00,
2013-03-10 14:53:00,42.0,23.0,-100.00,SW,232,16.0,20.0,46,0.00,,,-99.99,,2013-03-10 20:53:00,
2013-03-10 15:02:00,42.0,23.0,-100.00,SW,232,16.0,20.0,46,0.00,,,-99.99,,2013-03-10 21:02:00,
2013-03-10 15:12:00,44.0,24.0,-100.00,SW,234,13.0,16.0,45,0.00,,,-99.99,,2013-03-10 21:12:00,
2013-03-10 15:22:00,44.0,25.0,-100.00,SW,233,15.0,17.0,46,0.00,,,-99.99,,2013-03-10 21:22:00,
2013-03-10 15:32:00,44.0,25.0,-100.00,SW,233,15.0,17.0,46,0.00,,,-99.99,,2013-03-10 21:32:00,
2013-03-10 15:42:00,44.0,25.0,-100.00,SW,233,15.0,17.0,46,0.00,,,-99.99,,2013-03-10 21:42:00,
2013-03-10 15:52:00,45.0,25.0,-100.00,SW,236,15.0,19.0,44,0.00,,,-99.99,,2013-03-10 21:52:00,
2013-03-10 16:02:00,45.0,25.0,-100.00,SW,236,15.0,19.0,44,0.00,,,-99.99,,2013-03-10 22:02:00,
2013-03-10 16:12:00,45.0,25.0,-100.00,SW,215,11.0,16.0,44,0.00,,,-99.99,,2013-03-10 22:12:00,
2013-03-10 16:22:00,45.0,25.0,-100.00,WSW,237,12.0,15.0,43,0.00,,,-99.99,,2013-03-10 22:22:00,
2013-03-10 16:32:00,45.0,25.0,-100.00,WSW,237,12.0,15.0,43,0.00,,,-99.99,,2013-03-10 22:32:00,
2013-03-10 16:42:00,45.0,23.0,-100.00,SW,232,15.0,18.0,42,0.00,,,-99.99,,2013-03-10 22:42:00,
2013-03-10 16:53:00,45.0,23.0,-100.00,SW,232,15.0,18.0,42,0.00,,,-99.99,,2013-03-10 22:53:00,
2013-03-10 17:02:00,45.0,23.0,-100.00,SW,232,15.0,18.0,42,0.00,,,-99.99,,2013-03-10 23:02:00,
2013-03-10 17:12:00,45.0,25.0,-100.00,WSW,243,15.0,16.0,44,0.00,,,-99.99,,2013-03-10 23:12:00,
2013-03-10 17:22:00,46.0,23.0,-100.00,WSW,239,14.0,17.0,39,0.00,,,-99.99,,2013-03-10 23:22:00,
2013-03-10 17:32:00,46.0,23.0,-100.00,WSW,239,14.0,17.0,39,0.00,,,-99.99,,2013-03-10 23:32:00,
2013-03-10 17:42:00,46.0,23.0,-100.00,WSW,239,16.0,20.0,40,0.00,,,-99.99,,2013-03-10 23:42:00,
2013-03-10 17:52:00,46.0,23.0,-100.00,WSW,239,16.0,20.0,40,0.00,,,-99.99,,2013-03-10 23:52:00,
2013-03-10 18:02:00,46.0,23.0,-100.00,WSW,239,16.0,20.0,40,0.00,,,-99.99,,2013-03-11 00:02:00,
2013-03-10 18:22:00,45.0,24.0,-100.00,SW,222,13.0,17.0,42,0.00,,,-99.99,,2013-03-11 00:22:00,
2013-03-10 18:32:00,45.0,24.0,-100.00,SW,222,13.0,17.0,42,0.00,,,-99.99,,2013-03-11 00:32:00,
2013-03-10 18:42:00,45.0,24.0,-100.00,SW,222,13.0,17.0,42,0.00,,,-99.99,,2013-03-11 00:42:00,
2013-03-10 18:53:00,44.0,27.0,-100.00,SSW,212,8.0,11.0,50,0.00,,,-99.99,,2013-03-11 00:53:00,
2013-03-10 19:02:00,44.0,27.0,-100.00,SSW,212,8.0,11.0,50,0.00,,,-99.99,,2013-03-11 01:02:00,
2013-03-10 19:12:00,44.0,27.0,-100.00,SSW,212,8.0,11.0,50,0.00,,,-99.99,,2013-03-11 01:12:00,
2013-03-10 19:22:00,43.0,29.0,-100.00,WSW,237,10.0,11.0,58,0.00,,,-99.99,,2013-03-11 01:22:00,
2013-03-10 19:32:00,43.0,29.0,-100.00,WSW,237,10.0,11.0,58,0.00,,,-99.99,,2013-03-11 01:32:00,
2013-03-10 19:43:00,43.0,29.0,-100.00,WSW,237,10.0,11.0,58,0.00,,,-99.99,,2013-03-11 01:43:00,
2013-03-10 19:53:00,42.0,28.0,-100.00,SSW,206,6.0,7.0,58,0.00,,,-99.99,,2013-03-11 01:53:00,
2013-03-10 20:02:00,42.0,28.0,-100.00,SSW,206,6.0,7.0,58,0.00,,,-99.99,,2013-03-11 02:02:00,
2013-03-10 20:12:00,42.0,28.0,-100.00,SSW,206,6.0,7.0,58,0.00,,,-99.99,,2013-03-11 02:12:00,
2013-03-10 20:22:00,40.0,30.0,-100.00,SSW,193,3.0,5.0,67,0.00,,,-99.99,,2013-03-11 02:22:00,
2013-03-10 20:32:00,40.0,30.0,-100.00,SSW,193,3.0,5.0,67,0.00,,,-99.99,,2013-03-11 02:32:00,
2013-03-10 20:42:00,40.0,30.0,-100.00,SSW,193,3.0,5.0,67,0.00,,,-99.99,,2013-03-11 02:42:00,
2013-03-10 20:52:00,38.0,31.0,-100.00,SSE,147,6.0,7.0,76,0.00,,,-99.99,,2013-03-11 02:52:00,
2013-03-10 21:02:00,38.0,31.0,-100.00,SSE,147,6.0,7.0,76,0.00,,,-99.99,,2013-03-11 03:02:00,
2013-03-10 21:12:00,38.0,30.0,-100.00,SSE,147,7.0,9.0,73,0.00,,,-99.99,,2013-03-11 03:12:00,
2013-03-10 21:22:00,39.0,29.0,-100.00,South,176,7.0,9.0,69,0.00,,,-99.99,,2013-03-11 03:22:00,
2013-03-10 21:31:00,39.0,29.0,-100.00,South,176,7.0,9.0,69,0.00,,,-99.99,,2013-03-11 03:31:00,
2013-03-10 21:42:00,38.0,28.0,-100.00,South,179,7.0,10.0,66,0.00,,,-99.99,,2013-03-11 03:42:00,
2013-03-10 21:52:00,39.0,27.0,-100.00,South,178,9.0,12.0,61,0.00,,,-99.99,,2013-03-11 03:52:00,
2013-03-10 22:02:00,39.0,27.0,-100.00,South,178,9.0,12.0,61,0.00,,,-99.99,,2013-03-11 04:02:00,
2013-03-10 22:12:00,39.0,26.0,-100.00,South,185,8.0,11.0,60,0.00,,,-99.99,,2013-03-11 04:12:00,
2013-03-10 22:22:00,39.0,25.0,-100.00,South,184,7.0,10.0,57,0.00,,,-99.99,,2013-03-11 04:22:00,
2013-03-10 22:32:00,39.0,25.0,-100.00,South,184,7.0,10.0,57,0.00,,,-99.99,,2013-03-11 04:32:00,
2013-03-10 22:42:00,38.0,25.0,-100.00,South,182,8.0,11.0,61,0.00,,,-99.99,,2013-03-11 04:42:00,
2013-03-10 22:53:00,37.0,24.0,-100.00,South,175,11.0,15.0,58,0.00,,,-99.99,,2013-03-11 04:53:00,
2013-03-10 23:02:00,37.0,24.0,-100.00,South,175,11.0,15.0,58,0.00,,,-99.99,,2013-03-11 05:02:00,
2013-03-10 23:11:00,37.0,23.0,-100.00,South,185,10.0,13.0,57,0.00,,,-99.99,,2013-03-11 05:11:00,
2013-03-10 23:22:00,38.0,22.0,-100.00,South,182,10.0,14.0,53,0.00,,,-99.99,,2013-03-11 05:22:00,
2013-03-10 23:32:00,38.0,22.0,-100.00,South,182,10.0,14.0,53,0.00,,,-99.99,,2013-03-11 05:32:00,
2013-03-10 23:42:00,38.0,20.0,-100.00,South,188,9.0,14.0,49,0.00,,,-99.99,,2013-03-11 05:42:00,
2013-03-10 23:52:00,38.0,21.0,-100.00,South,186,8.0,11.0,50,0.00,,,-99.99,,2013-03-11 05:52:00,